FIN1DH EFHK-ESSV

Flight info

Callsign FIN1DH
Flight time N/A
Altitude 36000
Route VALOX Y117 ROSAX DCT ANFEV DCT PENOR DCT SUBIX DCT MAREM DCT BALTU DCT VESUB T106 TUSTO T108 LANDU LANDU2B
Aircraft A321/M-SDE3FGHIRWY/LB1

Departure

Time N/A
Airport Helsinki Vantaa Airport (EFHK)

Arrival

Time 2026-04-24 13:44
Airport Visby Airport (ESSV)
Time Latitude Longitude Altitude Speed Heading
2026-04-24 13:36 57.41252 18.46251 5163 ft 252 kts 287°
2026-04-24 13:37 57.41621 18.43182 5031 ft 235 kts 283°
2026-04-24 13:37 57.41890 18.40234 4641 ft 229 kts 282°
2026-04-24 13:37 57.42137 18.37327 4114 ft 227 kts 281°
2026-04-24 13:37 57.42364 18.34491 3660 ft 220 kts 282°
2026-04-24 13:38 57.42792 18.31809 3156 ft 215 kts 295°
2026-04-24 13:38 57.43369 18.29316 3001 ft 203 kts 297°
2026-04-24 13:38 57.43922 18.27019 3015 ft 187 kts 300°
2026-04-24 13:38 57.44751 18.25327 3015 ft 175 kts 331°
2026-04-24 13:39 57.45879 18.24572 3023 ft 171 kts 347°
2026-04-24 13:39 57.47011 18.24009 3012 ft 167 kts 334°
2026-04-24 13:39 57.47914 18.22658 3018 ft 166 kts 319°
2026-04-24 13:39 57.48921 18.21871 3000 ft 164 kts
2026-04-24 13:40 57.50023 18.22455 3026 ft 166 kts 19°
2026-04-24 13:40 57.51084 18.23301 3014 ft 166 kts 20°
2026-04-24 13:40 57.52140 18.24164 3018 ft 166 kts 20°
2026-04-24 13:40 57.53200 18.25015 2993 ft 166 kts 20°
2026-04-24 13:41 57.54247 18.25924 2780 ft 163 kts 23°
2026-04-24 13:41 57.55231 18.26836 2573 ft 152 kts 21°
2026-04-24 13:41 57.56203 18.27563 2446 ft 149 kts 16°
2026-04-24 13:41 57.57180 18.28178 2284 ft 148 kts 15°
2026-04-24 13:42 57.58143 18.28728 2198 ft 142 kts 15°
2026-04-24 13:42 57.59060 18.29387 1981 ft 141 kts 20°
2026-04-24 13:42 57.59951 18.30089 1803 ft 139 kts 20°
2026-04-24 13:42 57.60873 18.30740 1485 ft 144 kts 17°
2026-04-24 13:43 57.61802 18.31391 1192 ft 141 kts 19°
2026-04-24 13:43 57.62715 18.32054 909 ft 140 kts 21°
2026-04-24 13:43 57.63619 18.32711 653 ft 141 kts 19°
2026-04-24 13:43 57.64545 18.33363 411 ft 143 kts 21°
2026-04-24 13:44 57.65477 18.34038 193 ft 143 kts 20°
2026-04-24 13:44 57.66288 18.34611 149 ft 92 kts 22°
2026-04-24 13:44 57.66603 18.34850 143 ft 17 kts 20°
2026-04-24 13:44 57.66727 18.34938 143 ft 21 kts 20°
2026-04-24 13:45 57.66860 18.35029 148 ft 19 kts 20°
2026-04-24 13:45 57.66981 18.35047 151 ft 18 kts 352°
2026-04-24 13:45 57.67087 18.34964 150 ft 14 kts 328°
2026-04-24 13:45 57.67114 18.34904 150 ft 4 kts 244°
2026-04-24 13:46 57.67074 18.34868 150 ft 10 kts 200°
2026-04-24 13:46 57.66981 18.34802 148 ft 19 kts 200°
2026-04-24 13:46 57.66845 18.34702 145 ft 22 kts 202°
2026-04-24 13:46 57.66698 18.34591 145 ft 23 kts 197°
2026-04-24 13:47 57.66542 18.34486 145 ft 25 kts 200°
2026-04-24 13:47 57.66381 18.34372 146 ft 25 kts 201°
2026-04-24 13:47 57.66212 18.34250 146 ft 27 kts 200°
2026-04-24 13:47 57.66118 18.34137 144 ft 12 kts 272°
2026-04-24 13:48 57.66111 18.34053 145 ft 2 kts 278°
2026-04-24 13:48 57.66130 18.34031 145 ft 5 kts 341°
2026-04-24 13:48 57.66150 18.34015 144 ft 0 kts 336°